BAW187 OMDB-EGLL

Flight info

Callsign BAW187
Flight time N/A
Altitude 36000
Route SENPA N571 ALPOB L768 ULADA Q143 MEDGO N697 HIL A788 HLF/N0499F380 L604 WEJ L677 CVO L617 NOZ L551 ANTAR UN133 KPC DCT FSK/N0480F400 DCT DISOR DCT LONTA UL608 DOLEV DCT BOSNA DCT MARIL DCT OKSIG DCT KUSIB DCT GORPA DCT DOL DCT NIPEL DCT ERKIR DCT BABEG DCT LIRSU DCT ARCKY DCT BUB L608 LOGAN
Aircraft A35K/H-SDE2E3GHIJ3J4J5LM1ORWXY/LB1D1

Departure

Time 2026-04-26 13:26
Airport Dubai International Airport (OMDB)

Arrival

Time N/A
Airport London Heathrow Airport (EGLL)
Time Latitude Longitude Altitude Speed Heading
2026-04-26 12:46 25.25381 55.35400 28 ft 0 kts 213°
2026-04-26 13:00 25.25382 55.35400 28 ft 0 kts 213°
2026-04-26 13:11 25.25393 55.35408 27 ft 2 kts 213°
2026-04-26 13:11 25.25402 55.35415 27 ft 2 kts 213°
2026-04-26 13:12 25.25412 55.35422 27 ft 2 kts 213°
2026-04-26 13:12 25.25422 55.35429 27 ft 2 kts 213°
2026-04-26 13:12 25.25432 55.35436 26 ft 2 kts 213°
2026-04-26 13:12 25.25442 55.35444 26 ft 2 kts 228°
2026-04-26 13:13 25.25448 55.35455 26 ft 2 kts 256°
2026-04-26 13:13 25.25449 55.35468 26 ft 2 kts 288°
2026-04-26 13:13 25.25448 55.35471 24 ft 0 kts 297°
2026-04-26 13:16 25.25449 55.35470 24 ft 1 kts 299°
2026-04-26 13:16 25.25472 55.35428 28 ft 8 kts 301°
2026-04-26 13:16 25.25503 55.35371 28 ft 9 kts 301°
2026-04-26 13:16 25.25538 55.35307 28 ft 10 kts 301°
2026-04-26 13:17 25.25623 55.35166 28 ft 11 kts 322°
2026-04-26 13:17 25.25690 55.35170 28 ft 10 kts 21°
2026-04-26 13:18 25.25825 55.35256 28 ft 13 kts 31°
2026-04-26 13:18 25.25902 55.35307 28 ft 13 kts 29°
2026-04-26 13:18 25.25983 55.35530 28 ft 20 kts 109°
2026-04-26 13:19 25.25916 55.35665 28 ft 21 kts 122°
2026-04-26 13:19 25.25839 55.35800 28 ft 21 kts 122°
2026-04-26 13:19 25.25759 55.35940 28 ft 22 kts 121°
2026-04-26 13:19 25.25680 55.36086 28 ft 22 kts 121°
2026-04-26 13:20 25.25597 55.36236 28 ft 23 kts 119°
2026-04-26 13:20 25.25513 55.36390 28 ft 23 kts 123°
2026-04-26 13:20 25.25429 55.36537 28 ft 23 kts 121°
2026-04-26 13:20 25.25345 55.36690 28 ft 24 kts 121°
2026-04-26 13:21 25.25257 55.36847 28 ft 24 kts 121°
2026-04-26 13:21 25.25211 55.36931 28 ft 18 kts 121°
2026-04-26 13:21 25.25121 55.37093 28 ft 19 kts 121°
2026-04-26 13:21 25.25051 55.37221 28 ft 20 kts 121°
2026-04-26 13:22 25.24980 55.37352 28 ft 20 kts 121°
2026-04-26 13:22 25.24909 55.37476 28 ft 18 kts 120°
2026-04-26 13:22 25.24853 55.37573 28 ft 13 kts 127°
2026-04-26 13:22 25.24808 55.37657 28 ft 13 kts 118°
2026-04-26 13:23 25.24759 55.37751 28 ft 13 kts 120°
2026-04-26 13:23 25.24712 55.37833 28 ft 13 kts 121°
2026-04-26 13:23 25.24674 55.37915 28 ft 12 kts 97°
2026-04-26 13:23 25.24686 55.37955 28 ft 0 kts 52°
2026-04-26 13:24 25.24716 55.37982 28 ft 16 kts 37°
2026-04-26 13:24 25.24806 55.38005 28 ft 11 kts 325°
2026-04-26 13:25 25.24842 55.37950 28 ft 0 kts 304°
2026-04-26 13:25 25.24850 55.37937 28 ft 12 kts 304°
2026-04-26 13:25 25.25003 55.37667 28 ft 72 kts 302°
2026-04-26 13:25 25.25364 55.37017 28 ft 123 kts 302°
2026-04-26 13:26 25.25892 55.36087 144 ft 154 kts 302°
2026-04-26 13:26 25.26495 55.35022 410 ft 176 kts 301°
2026-04-26 13:26 25.27179 55.33783 630 ft 201 kts 302°
2026-04-26 13:26 25.27938 55.32400 800 ft 221 kts 301°
2026-04-26 13:27 25.28776 55.30900 935 ft 245 kts 301°
2026-04-26 13:27 25.29724 55.29192 1162 ft 267 kts 302°
2026-04-26 13:27 25.30712 55.27425 1833 ft 266 kts 302°
2026-04-26 13:27 25.31483 55.25647 2774 ft 252 kts 283°
2026-04-26 13:28 25.31379 55.23763 3627 ft 244 kts 258°
2026-04-26 13:28 25.30995 55.22093 4344 ft 237 kts 260°
2026-04-26 13:28 25.30750 55.20296 4868 ft 239 kts 268°
2026-04-26 13:28 25.30725 55.18438 5124 ft 252 kts 272°
2026-04-26 13:29 25.30765 55.16479 5552 ft 258 kts 273°
2026-04-26 13:29 25.30805 55.15135 5901 ft 259 kts 274°
2026-04-26 13:29 25.30858 55.12451 6587 ft 264 kts 270°
2026-04-26 13:29 25.30642 55.10428 7074 ft 268 kts 263°
2026-04-26 13:30 25.30322 55.08391 7603 ft 270 kts 262°
2026-04-26 13:30 25.30072 55.06353 8087 ft 272 kts 273°
2026-04-26 13:30 25.30456 55.04298 8603 ft 272 kts 286°
2026-04-26 13:30 25.30889 55.02279 9120 ft 275 kts 282°
2026-04-26 13:31 25.31195 55.00163 9672 ft 278 kts 278°
2026-04-26 13:31 25.31401 54.98053 10148 ft 281 kts 276°
2026-04-26 13:31 25.31559 54.95873 10425 ft 293 kts 275°
2026-04-26 13:31 25.31688 54.93528 10680 ft 305 kts 274°
2026-04-26 13:32 25.31797 54.91142 10936 ft 317 kts 273°
2026-04-26 13:32 25.31902 54.88658 11185 ft 328 kts 273°
2026-04-26 13:32 25.32010 54.86098 11426 ft 339 kts 273°
2026-04-26 13:32 25.32119 54.83461 11673 ft 348 kts 273°
2026-04-26 13:33 25.32231 54.80753 11899 ft 358 kts 273°
2026-04-26 13:33 25.32346 54.77973 12121 ft 367 kts 273°
2026-04-26 13:33 25.32462 54.75133 12431 ft 373 kts 273°
2026-04-26 13:33 25.32579 54.72259 12806 ft 376 kts 272°
2026-04-26 13:34 25.32695 54.69391 13175 ft 379 kts 272°
2026-04-26 13:34 25.32812 54.66483 13587 ft 381 kts 272°
2026-04-26 13:34 25.32929 54.63575 13949 ft 384 kts 272°
2026-04-26 13:34 25.33010 54.61546 14207 ft 385 kts 272°
2026-04-26 13:35 25.33166 54.57627 14711 ft 387 kts 272°
2026-04-26 13:35 25.33306 54.54653 15083 ft 389 kts 275°
2026-04-26 13:35 25.33754 54.51687 15461 ft 391 kts 282°
2026-04-26 13:35 25.34383 54.48763 15854 ft 393 kts 280°
2026-04-26 13:36 25.34813 54.45784 16238 ft 394 kts 277°
2026-04-26 13:36 25.35178 54.42770 16631 ft 396 kts 276°
2026-04-26 13:36 25.35513 54.39739 17021 ft 397 kts 276°
2026-04-26 13:36 25.35834 54.36694 17416 ft 399 kts 275°
2026-04-26 13:37 25.36150 54.33652 17783 ft 401 kts 275°
2026-04-26 13:37 25.36472 54.30576 18163 ft 403 kts 275°
2026-04-26 13:37 25.36797 54.27490 18495 ft 404 kts 275°
2026-04-26 13:37 25.37124 54.24407 18850 ft 405 kts 275°
2026-04-26 13:38 25.37455 54.21311 19191 ft 406 kts 275°
2026-04-26 13:38 25.37786 54.18207 19531 ft 407 kts 275°
2026-04-26 13:38 25.38117 54.15101 19874 ft 408 kts 275°
2026-04-26 13:38 25.38449 54.11986 20204 ft 409 kts 275°